Tracking 19709 objects as of 17-Jun-2019
HD Live streaming from Space Station
objects crossing your sky now

SCOUT G-1 DEB

Track SCOUT G-1 DEB now!
10-day predictions


NORAD ID: 18426
Int'l Code: 1986-088C
Perigee: 947.3 km
Apogee: 1,046.2 km
Inclination: 89.1 °
Period: 104.9 minutes
Semi major axis: 7367 km
RCS: 0.0396 m2 (small)
Launch date: November 14, 1986
Source: United States (US)
Launch site: AIR FORCE WESTERN TEST RANGE (AFWTR)

Note: This is SATELLITE DEBRIS
aabbcc
Your satellite tracking list
Your tracking list is empty




NASA's NSSDC Master Catalog

Two Line Element Set (TLE):
1 18426U 86088C   19167.65030087 +.00000097 +00000-0 +91935-4 0  9991
2 18426 089.1309 126.8103 0067140 276.3096 137.7966 13.72777527629953
Source of the keplerian elements: AFSPC